This is the latest recevied weather packets stored in our database for station/object OE5RPP. If no packets are shown the sender has not sent any weather packets the latest 10 day(s).
| Time | Temp. | Humidity | Pressure | Rain* | Wind** | Luminosity | Snow |
|---|---|---|---|---|---|---|---|
| 1787654858 | 19.44° C | 27% | 1016.9 hPa | 0 mm | - | - | - |
| 1787654258 | 19.44° C | 23% | 1015.9 hPa | 0 mm | - | - | - |
| 1787653617 | 19.44° C | 23% | 1015.9 hPa | 0 mm | - | - | - |
| 1787653018 | 20° C | 23% | 1015.9 hPa | 0 mm | - | - | - |
| 1787652417 | 20° C | 23% | 1015.9 hPa | 0 mm | - | - | - |
| 1787651817 | 20° C | 23% | 1015.9 hPa | 0 mm | - | - | - |
| 1787651224 | 20.56° C | 26% | 1015.9 hPa | 0 mm | - | - | - |
| 1787650618 | 20.56° C | 26% | 1015.9 hPa | 0 mm | - | - | - |
| 1787650018 | 20.56° C | 26% | 1015.9 hPa | 0 mm | - | - | - |
| 1787649418 | 20° C | 26% | 1015.9 hPa | 0 mm | - | - | - |
| 1787648817 | 19.44° C | 30% | 1015.9 hPa | 0 mm | - | - | - |
| 1787648216 | 18.33° C | 31% | 1015.9 hPa | 0 mm | - | - | - |
| 1787647617 | 17.22° C | 32% | 1015.9 hPa | 0 mm | - | - | - |
| 1787647016 | 16.67° C | 32% | 1014.9 hPa | 0 mm | - | - | - |
| 1787646416 | 16.67° C | 32% | 1014.9 hPa | 0 mm | - | - | - |
| 1787645818 | 16.67° C | 34% | 1014.9 hPa | 0 mm | - | - | - |
| 1787645217 | 16.67° C | 35% | 1014.9 hPa | 0 mm | - | - | - |
| 1787644617 | 16.67° C | 37% | 1014.9 hPa | 0 mm | - | - | - |
| 1787644017 | 16.11° C | 37% | 1013.9 hPa | 0 mm | - | - | - |
| 1787643418 | 16.11° C | 39% | 1013.9 hPa | 0 mm | - | - | - |
| 1787642818 | 16.11° C | 42% | 1013.9 hPa | 0 mm | - | - | - |
| 1787642217 | 15.56° C | 42% | 1013.9 hPa | 0 mm | - | - | - |
| 1787641617 | 15.56° C | 43% | 1013.9 hPa | 0 mm | - | - | - |
| 1787641018 | 15.56° C | 45% | 1013.9 hPa | 0 mm | - | - | - |
| 1787640418 | 15° C | 46% | 1013.9 hPa | 0 mm | - | - | - |
* Rain latest hour (hover to see other rain measurements)
** Current wind speed in m/s (hover to see current wind gust speed)